Location: Newark
(52.5694°N, 1.3190°W)
Time: 01:55:12
(UTC+00:00)

N. Korean satellite - Pass Details

Date: 26 January 2020
Orbit: 456 x 505 km, 97.2° (Epoch: 21 February)

Event Time Altitude Azimuth Distance (km) Brightness Sun altitude
Rises 17:29:55 0° 188° (S) 2,464 10.6 -7.8°
Reaches altitude 10° 17:32:04 10° 198° (SSW) 1,597 9.8 -8.1°
Maximum altitude 17:35:11 32° 264° (W) 814 8.6 -8.5°
Drops below altitude 10° 17:38:20 10° 329° (NNW) 1,619 9.4 -9.0°
Sets 17:40:33 0° 340° (NNW) 2,505 10.2 -9.3°
